Location: Arpaise
(41.0333°N, 14.7333°E)
Time: 06:42:04
(UTC+00:00)

IRIDIUM 106 - Pass Details

Date: 05 July 2020
Orbit: 776 x 779 km, 86.4° (Epoch: 05 August)

Event Time Altitude Azimuth Distance (km) Brightness Sun altitude
Exits shadow 22:19:30 56° 99° (E) 922 4.5 -25.4°
Maximum altitude 22:19:42 57° 88° (E) 918 4.5 -25.4°
Drops below altitude 10° 22:24:49 10° 11° (N) 2,340 7.7 -25.6°
Sets 22:27:12 0° 8° (N) 3,272 8.7 -25.7°
